Location: Spondin
(51.8528°N, 111.6118°W)
Time: 17:39:05
(UTC+00:00)

Vanguard 2 Rocket - Pass Details

Date: 27 May 2022
Orbit: 553 x 3323 km, 32.9° (Epoch: 02 July)

Event Time Altitude Azimuth Distance (km) Brightness Sun altitude
Rises 17:17:13 0° 178° (S) 7,158 11.8 50.9°
Reaches altitude 10° 17:27:25 10° 153° (SSE) 6,274 11.9 52.1°
Maximum altitude 17:33:09 12° 136° (SE) 6,030 12.0 52.8°
Drops below altitude 10° 17:38:41 10° 119° (ESE) 6,029 11.8 53.4°
Sets 17:47:40 0° 94° (E) 6,558 11.6 54.3°
